CAPE
5 3 2 0 0 0 0 0 0 1 0 1 3 3 4 1 0 0 0 0 1 1 0 0 0 0 0 0 0 0 0 0 0 0 0 1 0 14 1 0 0 0 0 0 0 0 0 0 0 0 0 0 0 0
5 3 2 0 0 0 0 0 0 1 1 1 2 0 0 0 0 0 1 0 0 5 0 0 0 0 0 0 0 0 0 0 3 0 0 0 0 1 3 0 0 0 0 0 0 0 0 0 0 0 0 0 0 0
5 2 0 0 0 0 0 0 0 0 1 2 0 0 0 0 1 4 1 1 0 1 0 0 0 0 0 0 0 0 0 0 4 0 2 0 0 3 1 2 1 0 0 0 0 0 0 0 0 0 0 0 0 0
3 2 0 0 0 0 0 0 0 1 0 2 0 0 0 0 1 0 0 0 0 0 0 0 0 0 0 0 0 0 0 0 0 31 4 1 0 1 1 2 3 1 0 0 0 0 0 0 0 0 0 0 0 0
3 0 0 0 0 0 0 0 0 1 0 2 0 0 0 0 0 0 0 0 0 0 0 0 0 0 0 0 0 0 0 0 0 0 2 1 1 0 0 0 1 3 1 1 0 1 3 0 0 0 0 0 0 0
2 0 0 0 0 0 0 0 0 2 1 1 0 0 0 0 0 0 2 0 1 1 1 0 0 0 0 0 0 0 0 0 0 0 2 3 5 0 0 1 1 1 0 4 1 0 0 0 0 0 0 0 0 0
0 0 0 0 0 0 0 0 2 0 1 1 0 0 0 0 0 0 0 0 0 0 0 0 0 0 0 0 0 0 0 0 0 1 1 4 6 0 0 1 1 1 0 0 0 0 0 0 0 0 0 0 0 0
0 0 0 0 0 0 0 1 2 1 1 1 0 0 0 0 0 0 0 0 0 0 1 0 0 0 0 0 0 0 0 0 0 0 0 6 1 2 0 2 0 0 0 0 0 1 0 0 0 0 0 0 0 0
0 0 0 0 0 0 0 1 2 1 1 0 0 0 0 0 0 0 0 0 0 0 0 0 0 0 0 0 0 0 0 0 0 0 0 0 1 0 2 3 0 0 0 0 0 0 2 1 0 0 0 0 0 0
0 0 0 0 0 0 0 1 1 1 0 0 0 0 0 1 0 0 0 0 1 0 0 0 0 0 0 0 0 0 0 0 0 0 0 0 5 24 6 11 4 0 0 0 0 0 0 0 1 0 0 0 0 0
0 0 0 0 0 0 1 1 0 1 0 0 0 1 0 0 0 0 1 1 1 0 0 0 0 0 0 0 0 0 0 0 0 0 0 0 0 11 3 9 12 0 0 0 2 1 1 2 2 1 0 0 0 1
0 0 0 0 0 0 0 1 0 0 0 0 0 0 0 0 1 1 0 0 0 0 0 0 0 0 0 0 0 0 0 0 0 0 0 0 0 1 0 5 21 0 0 0 0 1 1 1 1 1 1 1 0 0
0 0 0 0 1 1 1 1 0 0 0 0 1 0 0 1 0 2 0 0 0 0 0 0 0 0 0 0 0 0 1 1 0 1 0 0 0 0 0 1 8 0 0 0 0 0 0 0 0 1 1 0 0 1
0 0 0 0 1 1 0 0 0 1 0 0 2 0 0 3 1 5 2 6 8 2 0 0 0 0 0 1 1 0 0 0 0 0 0 0 0 0 0 0 13 0 0 0 0 0 0 0 0 0 0 0 0 0
0 0 0 0 0 0 0 1 0 1 0 0 0 0 10 18 15 10 1 4 8 0 0 0 1 1 1 0 0 0 0 0 0 0 0 1 0 0 0 0 1 1 0 0 0 0 0 0 0 0 0 0 0 0
0 0 0 0 1 0 0 2 1 0 1 0 0 0 0 0 3 1 0 0 3 14 0 10 2 2 0 0 0 0 0 0 0 8 16 3 0 0 0 0 0 8 1 0 0 0 0 0 0 0 0 0 0 0
0 0 0 1 1 1 0 0 0 1 1 0 2 0 0 0 0 0 0 0 1 17 21 19 4 0 0 2 0 0 0 2 19 28 12 0 0 0 0 0 0 0 22 5 3 1 0 0 0 0 0 0 0 0
0 0 0 1 2 2 1 1 1 2 1 4 7 0 0 0 0 0 0 0 0 3 1 0 0 0 0 0 0 0 0 0 0 0 0 0 0 0 0 0 0 0 12 16 9 8 0 0 0 0 0 0 0 0
0 0 0 0 0 0 1 0 0 2 5 1 0 0 0 0 0 0 0 0 0 0 0 0 0 0 0 0 0 0 0 0 0 0 0 0 0 0 0 0 1 17 27 2 0 0 0 0 0 0 0 0 0 0
0 1 0 0 0 0 0 16 0 13 0 0 0 0 0 0 0 0 0 0 0 0 0 0 0 0 0 0 0 0 0 0 0 0 0 0 0 0 0 0 0 0 0 0 0 0 0 0 0 0 0 0 0 0
0 2 2 2 1 0 0 2 3 0 0 0 0 0 0 0 0 0 0 0 0 0 0 0 0 0 0 0 0 0 0 0 0 0 0 0 0 0 0 0 0 0 0 0 0 0 0 0 0 0 0 0 0 0
0 0 1 4 0 2 1 0 5 1 0 0 0 0 1 0 0 0 0 0 0 0 0 0 0 0 0 0 0 0 0 0 0 0 0 0 0 0 0 0 0 0 0 0 0 0 0 0 0 0 0 0 0 0
0 0 0 0 3 0 0 0 19 16 0 0 16 12 2 6 1 0 0 1 1 1 0 0 0 0 0 0 0 0 0 0 0 0 0 0 0 0 0 0 0 0 0 0 0 0 0 0 0 0 0 0 0 0
0 43 167 88 2 0 0 0 0 0 0 0 13 14 7 1 0 1 0 1 1 0 1 0 5 0 0 0 0 0 0 0 0 0 0 0 0 0 0 0 0 0 0 0 0 0 0 0 0 0 0 1 1 0
59 0 11 8 0 33 10 2 0 16 1 0 4 0 28 0 0 0 0 0 3 3 2 0 1 3 0 0 0 0 0 0 0 0 0 0 0 0 0 0 0 0 0 0 0 0 0 0 0 0 0 0 14 9
0 0 0 0 0 0 2 1 0 2 50 12 17 0 0 0 0 0 0 0 0 0 0 0 2 0 0 0 0 0 0 0 0 0 0 0 0 0 0 0 0 0 0 0 0 0 0 0 0 0 0 0 0 9
0 0 0 0 0 5 22 28 30 58 87 92 84 13 0 0 2 3 0 0 0 0 0 0 0 0 0 0 0 0 0 0 0 0 0 0 0 0 0 0 0 0 0 0 0 0 0 0 0 0 0 0 0 0
0 0 0 0 0 0 3 1 0 0 0 0 0 0 0 0 0 0 0 0 0 0 0 0 0 0 0 0 0 0 0 0 0 0 0 0 0 0 0 0 0 0 0 0 0 0 0 0 0 0 0 0 0 0
0 0 0 0 0 0 0 0 0 0 0 0 0 0 0 0 0 0 0 0 0 0 0 0 0 0 0 0 0 0 0 0 0 0 0 0 0 0 0 0 0 0 0 0 0 1 0 0 0 0 0 0 0 0
0 0 0 0 0 0 0 0 0 0 0 0 0 0 0 0 0 0 0 0 0 0 0 0 0 0 0 0 0 0 0 0 0 0 0 0 0 0 0 0 0 0 0 0 0 0 0 0 0 0 0 0 0 0
0 0 0 0 0 0 0 0 0 0 0 0 0 0 0 0 0 0 0 0 0 0 0 0 0 0 0 0 0 0 0 0 0 0 0 0 0 0 0 0 0 0 0 0 0 0 0 0 0 0 0 0 0 0
0 0 0 0 0 0 0 0 0 0 0 0 0 0 0 0 0 0 0 0 0 0 0 0 0 0 0 0 0 0 0 0 0 0 0 0 0 0 0 0 0 0 0 0 0 0 0 0 0 0 0 0 0 0
0 0 0 0 0 0 0 0 0 0 0 0 0 0 0 0 0 0 0 0 0 0 0 0 0 0 0 0 0 0 0 0 0 0 0 0 0 0 0 0 0 0 0 0 0 0 0 0 0 0 0 0 0 0
CIN
-0 -0 -0 -0 -0 -0 -0 -0 -0 -3 -1 -3 -6 -9 -15 -1 -0 -0 -0 -0 -8 -5 -0 -0 -0 -0 -0 -0 -0 -0 -0 -0 -0 -0 -0 -0 -0 -6 -2 -0 -0 -0 -0 -0 -0 -0 -0 -0 -0 -0 -0 -0 -0 -0
-0 -0 -0 -0 -0 -0 -0 -0 -0 -4 -2 -3 -7 -0 -0 -0 -0 -4 -11 -0 -0 -2 -0 -0 -0 -0 -0 -0 -0 -0 -0 -1 -0 -0 -0 -0 -0 -2 -0 -0 -0 -0 -0 -0 -0 -0 -0 -0 -0 -0 -0 -0 -0 -0
-0 -0 -0 -0 -0 -0 -0 -0 -0 -1 -2 -1 -0 -0 -0 -0 -3 -22 -27 -6 -0 -1 -0 -0 -0 -0 -0 -0 -0 -0 -0 -0 -3 -2 -0 -0 -0 -0 -0 -0 -0 -0 -0 -0 -0 -0 -0 -0 -0 -0 -0 -0 -0 -0
-0 -0 -0 -0 -0 -0 -0 -0 -0 -2 -1 -1 -0 -0 -0 -0 -6 -0 -0 -0 -0 -0 -0 -0 -0 -0 -0 -0 -0 -0 -0 -0 -0 -6 -0 -0 -0 -0 -0 -0 -0 -0 -0 -0 -0 -0 -0 -0 -0 -0 -0 -0 -0 -0
-0 -0 -0 -0 -0 -0 -0 -0 -0 -2 -1 -1 -0 -0 -0 -0 -0 -0 -0 -14 -0 -0 -0 -0 -0 -0 -0 -0 -0 -0 -0 -0 -0 -0 -0 -0 -0 -0 -0 -0 -0 -0 -0 -0 -0 -0 -0 -0 -0 -0 -0 -0 -0 -0
-0 -0 -0 -0 -0 -0 -0 -0 -0 -1 -1 -0 -0 -0 -0 -0 -0 -0 -0 -0 -26 -14 -1 -0 -0 -0 -0 -0 -0 -1 -0 -0 -0 -0 -1 -1 -1 -0 -0 -0 -0 -0 -0 -0 -0 -0 -0 -0 -0 -0 -0 -0 -0 -0
-0 -0 -0 -0 -0 -0 -0 -0 -1 -1 -2 -0 -0 -0 -0 -0 -0 -0 -0 -0 -0 -0 -1 -0 -0 -0 -0 -0 -0 -0 -0 -0 -0 -3 -2 -0 -0 -0 -0 -0 -0 -0 -0 -0 -0 -0 -0 -0 -0 -0 -0 -0 -0 -0
-0 -0 -0 -0 -0 -0 -0 -1 -2 -2 -2 -0 -0 -0 -0 -0 -0 -0 -0 -0 -0 -12 -0 -0 -0 -0 -0 -0 -0 -0 -0 -0 -0 -0 -0 -1 -1 -0 -0 -0 -0 -0 -0 -0 -0 -0 -0 -0 -0 -0 -0 -0 -0 -0
-0 -0 -0 -0 -0 -0 -0 -1 -1 -2 -1 -1 -0 -0 -0 -0 -0 -0 -0 -0 -0 -0 -0 -0 -0 -0 -0 -0 -0 -0 -0 -0 -0 -0 -0 -0 -2 -0 -0 -0 -0 -0 -0 -0 -0 -0 -0 -0 -0 -0 -0 -0 -0 -0
-0 -0 -0 -0 -0 -0 -0 -1 -1 -1 -1 -0 -0 -0 -0 -0 -0 -0 -0 -0 -0 -0 -0 -0 -0 -0 -0 -0 -0 -0 -0 -0 -0 -0 -0 -0 -0 -2 -8 -5 -2 -0 -0 -0 -0 -0 -0 -0 -0 -0 -0 -0 -0 -0
-0 -0 -0 -0 -0 -0 -0 -1 -0 -0 -0 -0 -0 -0 -0 -0 -0 -0 -0 -0 -0 -0 -0 -1 -0 -0 -0 -0 -0 -0 -0 -0 -0 -0 -0 -0 -0 -2 -13 -11 -12 -0 -0 -0 -0 -0 -0 -0 -0 -0 -0 -0 -0 -0
-0 -0 -0 -0 -0 -0 -0 -0 -0 -0 -0 -0 -0 -0 -0 -0 -0 -0 -0 -0 -0 -0 -0 -0 -0 -0 -0 -0 -0 -0 -0 -0 -0 -0 -0 -1 -0 -7 -0 -17 -19 -0 -0 -0 -0 -0 -0 -0 -0 -0 -0 -0 -0 -0
-0 -0 -0 -0 -0 -0 -0 -0 -0 -0 -0 -0 -0 -0 -0 -0 -0 -0 -0 -0 -0 -0 -0 -0 -0 -0 -0 -0 -0 -0 -2 -0 -0 -4 -6 -0 -0 -0 -0 -16 -23 -0 -0 -0 -0 -0 -0 -0 -0 -0 -0 -0 -0 -0
-0 -0 -0 -0 -0 -0 -0 -0 -0 -0 -0 -0 -0 -0 -0 -4 -1 -3 -7 -16 -33 -57 -0 -0 -0 -0 -0 -8 -21 -3 -0 -0 -0 -0 -0 -0 -0 -0 -0 -0 -18 -0 -0 -0 -0 -0 -0 -0 -0 -0 -0 -0 -0 -0
-0 -0 -0 -0 -0 -0 -0 -0 -0 -0 -0 -0 -0 -0 -14 -20 -17 -24 -30 -41 -41 -0 -0 -0 -0 -1 -1 -0 -0 -0 -0 -0 -0 -0 -2 -4 -0 -0 -0 -0 -16 -6 -0 -0 -0 -0 -0 -0 -0 -0 -0 -0 -0 -0
-0 -0 -0 -0 -0 -0 -0 -0 -0 -0 -0 -0 -0 -0 -0 -0 -7 -9 -15 -5 -29 -38 -2 -1 -0 -0 -0 -4 -0 -0 -0 -0 -0 -26 -5 -14 -0 -0 -0 -0 -0 -37 -11 -0 -0 -0 -0 -0 -0 -0 -0 -0 -0 -0
-0 -0 -0 -0 -0 -1 -0 -0 -0 -0 -2 -0 -12 -50 -0 -0 -5 -0 -0 -0 -37 -6 -0 -2 -0 -2 -0 -1 -0 -0 -0 -6 -16 -14 -27 -1 -0 -0 -0 -0 -0 -1 -35 -33 -44 -24 -0 -0 -0 -0 -0 -0 -0 -0
-0 -0 -0 -0 -0 -0 -0 -0 -0 -0 -4 -39 -26 -0 -0 -4 -2 -0 -0 -0 -0 -18 -16 -0 -0 -0 -0 -0 -0 -0 -0 -0 -0 -0 -0 -0 -0 -0 -0 -0 -0 -2 -38 -24 -21 -27 -0 -0 -0 -0 -0 -0 -0 -0
-0 -0 -0 -0 -0 -0 -0 -0 -0 -16 -30 -27 -0 -0 -0 -0 -7 -0 -0 -0 -0 -0 -0 -0 -0 -0 -0 -0 -0 -0 -0 -0 -0 -0 -0 -0 -0 -0 -0 -0 -38 -62 -43 -14 -0 -0 -0 -0 -0 -0 -0 -0 -0 -0
-0 -0 -0 -0 -0 -0 -0 -42 -0 -51 -0 -0 -0 -0 -0 -0 -0 -0 -0 -0 -0 -0 -0 -0 -0 -0 -0 -0 -0 -0 -0 -0 -0 -0 -0 -0 -0 -0 -0 -0 -0 -0 -0 -0 -0 -0 -0 -0 -0 -0 -0 -0 -0 -0
-0 -0 -0 -0 -0 -0 -0 -95 -32 -0 -0 -0 -0 -0 -0 -0 -0 -0 -0 -0 -0 -0 -0 -0 -0 -0 -0 -0 -0 -0 -0 -0 -0 -0 -0 -0 -0 -0 -0 -0 -0 -0 -0 -0 -0 -0 -0 -0 -0 -0 -0 -0 -0 -0
-0 -0 -0 -0 -0 -0 -0 -0 -60 -15 -0 -0 -1 -0 -4 -0 -0 -0 -0 -0 -0 -0 -0 -0 -0 -0 -0 -0 -0 -0 -0 -0 -0 -0 -0 -0 -0 -0 -0 -0 -0 -0 -0 -0 -0 -0 -0 -0 -0 -0 -0 -0 -0 -0
-0 -0 -0 -0 -30 -0 -2 -0 -34 -16 -0 -2 -8 -2 -3 -2 -2 -0 -0 -0 -0 -0 -0 -0 -0 -0 -0 -0 -0 -0 -0 -0 -0 -0 -0 -0 -0 -0 -0 -0 -0 -0 -0 -0 -0 -0 -0 -0 -0 -0 -0 -0 -0 -0
-0 -72 -30 -27 -34 -23 -0 -0 -0 -0 -6 -7 -7 -3 -0 -0 -0 -0 -0 -0 -0 -0 -4 -1 -6 -0 -0 -0 -0 -0 -0 -0 -0 -0 -0 -0 -0 -0 -0 -0 -0 -0 -0 -0 -0 -0 -0 -0 -0 -0 -0 -25 -23 -0
-48 -0 -68 -65 -0 -37 -34 -47 -0 -43 -35 -1 -12 -0 -0 -0 -0 -0 -0 -0 -0 -0 -0 -0 -27 -53 -2 -0 -0 -0 -0 -0 -0 -0 -0 -0 -0 -0 -0 -0 -0 -0 -0 -0 -0 -0 -0 -0 -0 -0 -0 -0 -25 -14
-0 -0 -0 -0 -0 -0 -28 -18 -0 -22 -30 -39 -37 -8 -0 -0 -0 -0 -0 -0 -0 -0 -0 -0 -25 -0 -0 -0 -0 -0 -0 -0 -0 -0 -0 -0 -0 -0 -0 -0 -0 -0 -0 -0 -0 -0 -0 -0 -0 -0 -0 -0 -0 -31
-0 -0 -0 -0 -0 -75 -36 -54 -68 -41 -12 -15 -24 -31 -0 -0 -0 -17 -0 -0 -0 -0 -0 -0 -0 -0 -0 -0 -0 -0 -0 -0 -0 -0 -0 -0 -0 -0 -0 -0 -0 -0 -0 -0 -0 -0 -0 -0 -0 -0 -0 -0 -0 -0
-6 -0 -0 -0 -0 -0 -10 -14 -0 -0 -0 -20 -0 -0 -0 -1 -0 -0 -0 -0 -0 -0 -0 -0 -0 -0 -0 -0 -0 -0 -0 -0 -0 -0 -0 -0 -0 -0 -0 -0 -0 -0 -0 -0 -0 -0 -0 -0 -0 -0 -0 -0 -0 -0
-0 -0 -0 -0 -0 -0 -0 -0 -0 -0 -0 -0 -0 -0 -0 -0 -0 -0 -0 -0 -0 -0 -0 -0 -0 -0 -0 -0 -0 -0 -0 -0 -0 -0 -0 -0 -0 -0 -0 -0 -0 -0 -0 -0 -0 -16 -0 -0 -0 -0 -0 -0 -0 -0
-0 -0 -0 -0 -0 -0 -0 -0 -0 -0 -0 -0 -0 -0 -0 -0 -0 -0 -0 -0 -0 -0 -0 -0 -0 -0 -0 -0 -0 -0 -0 -0 -0 -0 -0 -0 -0 -0 -0 -0 -0 -0 -0 -0 -0 -0 -0 -0 -0 -0 -0 -0 -0 -0
-0 -0 -0 -0 -0 -0 -0 -0 -0 -0 -0 -0 -0 -0 -0 -0 -0 -0 -0 -0 -0 -0 -0 -0 -0 -0 -0 -0 -0 -0 -0 -0 -0 -0 -0 -0 -0 -0 -0 -0 -0 -0 -0 -0 -0 -0 -0 -0 -0 -0 -0 -0 -0 -0
-0 -0 -0 -0 -0 -0 -0 -0 -0 -0 -0 -0 -0 -0 -0 -0 -0 -0 -0 -0 -0 -0 -0 -0 -0 -0 -0 -0 -0 -0 -0 -0 -0 -0 -0 -0 -0 -0 -0 -0 -0 -0 -0 -0 -0 -0 -0 -0 -0 -0 -0 -0 -0 -0
-0 -0 -0 -0 -0 -0 -0 -0 -0 -0 -0 -0 -0 -0 -0 -0 -0 -0 -0 -0 -0 -0 -0 -0 -0 -0 -0 -0 -0 -0 -0 -0 -0 -0 -0 -0 -0 -0 -0 -0 -0 -0 -0 -0 -0 -0 -0 -0 -0 -0 -0 -5 -4 -0
Wind_Speed
27 23 17 14 19 21 25 27 23 21 19 18 19 20 20 19 17 19 20 17 18 19 15 15 16 16 12 15 14 12 9 8 11 11 8 18 25 27 27 27 34 38 40 39 34 31 36 21 17 21 23 20 19 18
22 20 14 15 18 21 25 26 22 19 17 17 18 18 18 19 17 18 20 18 17 17 16 13 12 14 17 15 12 12 9 5 9 12 8 18 21 24 25 32 21 32 29 31 29 27 18 12 11 14 15 17 15 14
20 18 12 15 18 21 24 23 22 17 16 16 16 17 17 18 17 18 19 19 19 18 16 15 15 12 14 15 15 10 10 8 7 12 10 17 19 19 25 24 24 20 17 25 24 21 20 11 11 12 14 15 17 13
18 15 11 16 18 20 24 22 20 15 14 15 15 15 16 16 17 18 20 18 18 18 19 16 13 13 12 12 10 9 9 2 6 8 10 10 10 12 16 16 18 19 20 22 23 21 20 15 13 16 16 15 15 15
16 11 12 16 17 20 23 21 19 14 13 13 14 14 15 15 15 15 15 15 16 19 19 15 11 14 11 9 7 9 11 6 12 6 8 9 8 9 12 13 14 16 20 25 28 22 24 25 20 18 15 15 15 14
15 9 13 15 17 21 24 21 19 13 12 12 13 13 13 14 15 16 17 15 15 16 17 18 14 14 12 11 17 17 14 14 15 14 5 6 11 12 14 16 15 16 17 18 23 24 25 24 22 19 16 16 15 14
11 8 11 15 17 20 24 22 15 12 12 12 13 13 13 13 14 15 16 16 16 16 17 15 15 14 9 11 10 18 20 18 11 19 14 9 14 7 11 12 16 15 17 18 20 21 24 22 25 23 22 17 17 15
8 9 11 15 19 20 24 17 14 13 13 13 13 14 13 13 11 11 12 15 16 16 16 16 14 14 13 11 13 17 20 23 17 13 11 5 18 8 9 13 14 15 16 17 20 21 23 25 24 24 23 21 18 18
9 10 12 16 20 24 19 16 13 14 14 14 14 15 15 13 13 13 14 15 14 15 16 16 17 16 13 14 13 13 18 21 14 6 9 6 13 4 9 11 14 15 17 20 21 21 22 24 25 25 24 24 25 22
10 12 13 17 23 20 15 13 14 15 15 15 16 15 15 14 15 16 14 13 13 13 14 14 15 16 15 17 17 14 15 16 13 19 18 11 17 9 10 13 14 17 17 18 19 22 23 24 25 25 25 25 26 25
10 12 14 10 15 12 12 13 14 16 16 15 15 14 15 15 14 14 14 13 14 13 13 13 14 15 16 18 18 15 7 16 14 16 16 14 11 10 11 7 13 13 14 14 17 19 22 24 26 28 28 26 27 26
11 11 12 15 6 13 13 13 14 14 15 15 15 15 15 14 13 13 13 14 13 14 13 13 13 15 16 16 17 16 17 16 12 15 15 16 17 14 17 13 11 13 16 17 16 16 18 20 22 24 25 25 26 27
7 16 15 12 14 14 14 14 15 16 16 16 14 15 15 15 15 13 13 15 16 14 13 13 13 14 14 15 16 16 16 17 18 16 12 15 16 17 17 17 19 22 14 12 16 16 15 16 16 17 20 21 22 24
17 16 15 13 15 15 14 14 15 13 15 16 15 15 15 16 15 14 14 16 15 15 13 15 14 14 14 14 15 16 16 16 16 15 16 17 15 11 12 14 17 19 21 19 19 14 15 16 15 15 16 18 19 21
18 17 9 15 16 16 15 16 16 14 15 16 16 16 15 14 13 12 15 17 17 14 11 12 13 14 15 14 15 16 16 15 14 14 15 15 14 13 12 13 13 15 17 19 17 18 18 15 16 18 18 18 18 19
16 6 17 16 16 17 18 18 16 14 14 14 14 12 14 16 13 10 10 12 16 11 12 12 15 15 15 13 15 15 15 15 14 14 14 14 17 18 17 15 16 15 15 15 16 16 18 19 20 19 19 19 20 20
6 16 16 15 15 17 18 17 15 13 14 14 14 12 14 14 15 16 14 15 18 14 10 14 16 16 14 15 15 16 15 14 14 15 15 15 16 18 19 18 19 18 15 17 18 19 19 18 19 20 21 21 21 22
17 15 15 17 18 17 13 13 13 12 11 11 13 14 13 14 15 16 15 15 17 17 15 15 16 16 17 16 16 15 16 16 16 16 16 17 17 18 19 20 19 18 15 18 20 22 22 22 22 21 22 22 22 23
13 12 13 14 14 14 13 11 12 12 10 12 13 14 15 15 15 15 16 16 16 16 15 17 17 14 14 16 16 15 15 14 15 16 18 19 18 19 18 19 19 18 17 19 20 21 23 25 24 24 23 23 24 24
10 12 12 12 13 13 13 12 11 13 13 12 13 13 14 15 17 19 18 18 17 17 18 17 16 15 16 15 15 14 13 15 15 17 18 18 18 18 18 19 19 19 19 20 21 23 25 26 27 27 24 24 26 26
14 14 13 11 11 9 12 13 12 14 14 13 12 13 13 14 16 18 19 17 18 17 16 15 15 14 14 14 15 15 15 16 17 17 15 16 17 17 18 19 20 21 22 24 26 26 27 28 28 27 26 26 26 25
14 13 15 12 12 12 13 18 17 16 15 15 14 12 13 12 14 16 17 19 18 19 15 13 13 14 14 16 17 16 16 18 19 17 16 16 18 20 21 21 23 25 26 27 27 28 29 28 28 28 29 30 30 28
15 13 13 13 14 16 17 18 16 20 16 15 19 15 18 17 18 19 16 20 18 20 14 14 15 16 17 17 17 16 19 20 20 17 17 19 20 20 21 24 25 27 27 26 26 27 28 28 28 27 27 29 29 26
14 14 14 14 15 18 20 20 19 18 18 18 19 19 20 22 20 18 21 22 22 17 13 14 17 16 18 19 20 19 19 20 19 18 19 20 22 23 23 24 25 25 24 24 26 27 28 28 28 27 28 27 27 23
16 18 18 19 20 20 20 22 23 22 22 21 20 21 21 21 22 22 21 22 23 19 14 17 16 21 20 20 19 20 19 18 18 19 19 20 22 23 24 25 25 24 24 25 27 27 27 27 28 28 28 27 26 25
18 18 19 19 19 21 20 21 21 20 21 21 22 21 21 22 23 22 20 20 19 18 16 17 19 19 19 18 19 21 20 18 18 20 20 20 20 21 23 25 26 25 23 23 26 27 27 26 27 28 28 28 26 26
21 19 21 20 19 19 19 19 21 21 21 22 21 21 21 21 21 20 20 18 17 16 15 13 17 20 21 21 22 23 23 20 17 17 19 20 21 22 22 24 25 25 22 23 24 25 25 27 27 28 28 27 27 26
21 20 22 22 23 22 22 21 21 19 18 17 18 19 18 19 20 21 20 18 16 15 14 15 19 21 22 22 21 21 20 19 19 19 19 19 18 19 18 16 18 24 23 21 26 24 23 25 27 28 29 28 28 27
23 22 22 25 23 23 23 20 16 15 12 16 19 20 21 23 25 23 21 17 14 15 23 24 23 23 23 22 20 19 17 17 19 20 18 16 14 13 14 15 12 13 15 14 15 22 22 23 26 25 26 26 26 25
23 22 23 24 24 23 18 17 19 18 21 23 25 29 29 26 23 19 17 16 20 25 24 25 25 23 21 22 21 21 21 22 23 23 22 21 18 14 14 14 13 12 14 15 13 12 11 12 11 12 13 15 17 16
23 25 27 27 26 25 26 26 27 29 30 31 30 31 28 24 21 18 20 25 26 26 24 23 22 22 23 22 22 24 23 20 20 21 20 19 18 17 17 17 17 16 17 16 16 15 14 12 10 9 7 6 4 3
23 25 27 27 28 27 24 24 25 26 25 24 23 23 23 23 22 20 22 23 24 23 23 23 22 20 19 20 21 21 21 21 20 19 18 16 15 14 13 13 13 14 15 14 14 13 12 10 9 9 10 11 13 13
27 26 27 27 24 23 23 23 22 23 22 22 21 22 21 21 20 19 19 20 21 22 22 22 22 22 22 21 21 19 18 17 15 13 12 11 9 8 7 7 8 8 7 8 7 8 8 8 8 7 9 10 10 11
Wind_Direction
350 354 3 11 7 7 6 4 15 20 29 35 34 36 40 50 62 52 49 60 56 51 62 76 81 93 169 215 203 223 207 121 71 82 360 263 233 228 226 219 212 215 214 218 223 226 226 275 254 231 255 266 271 274
349 356 10 11 9 9 4 5 14 21 33 38 39 42 47 54 63 58 52 60 68 66 77 114 169 188 198 179 177 180 176 176 117 79 116 240 236 230 222 210 222 213 225 219 225 222 232 257 249 265 276 266 272 282
352 355 16 11 10 9 3 10 15 23 34 41 45 51 54 59 68 62 60 68 69 71 84 115 165 187 153 166 159 206 211 111 104 82 154 190 226 232 212 213 215 223 234 217 218 224 231 253 263 286 293 288 273 276
354 2 26 11 11 10 1 9 18 28 38 43 49 55 59 64 73 70 66 74 77 76 76 102 207 204 147 126 115 148 196 158 82 153 182 207 245 239 211 215 215 233 231 228 219 232 232 246 270 283 287 300 288 265
355 14 20 11 10 8 3 9 16 30 40 50 51 59 62 64 74 76 76 80 85 77 78 89 203 178 185 203 171 143 193 196 110 143 258 246 270 237 228 229 235 250 237 227 225 242 242 241 262 281 287 293 290 266
358 31 17 14 10 6 359 6 12 36 45 56 56 61 65 63 64 60 60 77 94 90 82 80 105 134 237 257 318 317 296 126 118 124 181 255 304 246 231 229 261 265 256 250 242 255 246 252 251 269 283 286 286 284
12 26 20 13 10 6 357 3 25 41 50 58 56 60 66 68 65 58 59 64 90 88 82 82 86 109 174 229 275 337 352 45 165 100 129 160 348 302 242 243 270 273 261 261 265 262 248 256 254 263 265 279 281 282
35 24 18 14 6 7 358 17 29 50 53 59 57 57 63 60 63 63 74 79 86 78 81 76 91 97 122 239 288 318 355 26 341 158 159 194 116 307 268 274 279 280 275 271 268 266 262 262 265 263 264 266 275 278
38 28 22 14 6 350 11 24 51 56 58 62 58 56 45 48 60 64 70 70 82 73 71 78 82 92 117 140 213 301 44 30 79 236 289 207 128 77 289 294 292 288 283 278 271 269 270 266 262 262 267 262 259 270
39 26 25 13 339 276 31 57 61 62 67 66 49 42 40 47 52 52 62 78 77 70 71 85 93 100 115 113 117 320 317 93 292 38 61 307 341 195 194 287 288 295 298 294 276 272 273 269 266 264 266 270 263 266
38 35 24 230 256 45 64 71 71 68 64 54 47 46 30 45 51 47 56 61 66 69 76 87 96 103 117 111 114 130 324 347 332 327 20 314 279 265 291 228 310 316 318 309 302 291 284 275 270 264 267 278 272 267
40 48 233 255 89 65 76 82 90 64 55 52 46 47 35 56 58 65 68 52 56 59 72 81 97 102 120 122 112 112 113 126 339 14 355 1 352 350 343 308 337 325 336 333 323 309 298 287 290 278 275 280 279 274
117 242 252 248 60 72 84 92 107 61 60 60 71 85 62 53 40 45 45 41 32 27 56 63 70 92 94 108 115 114 108 108 109 116 47 360 336 334 351 355 19 16 328 324 340 342 332 319 308 301 289 287 291 282
240 250 252 70 65 74 83 104 123 91 73 82 82 71 58 43 37 47 45 27 32 40 80 77 68 85 71 84 77 65 77 90 89 108 99 117 132 194 262 325 19 10 13 0 358 340 341 342 326 322 320 308 304 297
256 259 182 77 72 74 85 101 104 92 81 73 71 68 70 59 55 54 31 19 14 22 55 55 44 37 33 44 49 45 37 52 69 74 80 92 104 148 233 263 310 342 359 5 350 355 349 338 338 345 333 325 319 316
263 124 34 62 71 75 85 91 99 83 71 69 74 83 54 45 57 65 60 51 36 50 1 31 51 30 27 42 32 32 35 32 45 48 68 64 23 17 352 315 293 303 315 322 334 336 340 343 346 342 345 343 338 327
274 34 39 56 83 83 92 75 87 85 71 64 65 76 62 66 68 65 76 58 46 92 87 347 356 10 24 20 19 22 22 33 44 56 54 35 9 341 338 343 334 339 359 338 327 323 318 317 324 335 342 346 346 347
24 58 54 63 67 78 82 80 72 76 75 84 67 68 84 83 74 65 63 68 62 38 26 1 7 5 6 9 12 28 40 46 43 37 25 16 19 19 360 344 347 351 7 349 331 329 329 320 313 311 316 323 326 333
60 72 91 77 56 55 51 68 66 62 76 65 64 56 58 55 61 53 45 53 57 36 33 7 15 54 62 54 55 54 37 40 32 17 3 0 2 7 15 13 11 7 1 347 345 346 341 337 328 324 324 324 314 319
146 123 110 71 39 44 47 48 55 39 41 59 48 51 45 43 36 25 26 36 14 8 11 8 30 55 65 58 48 41 47 26 24 10 10 16 16 24 20 17 9 7 3 355 347 339 334 334 336 331 327 323 317 314
37 50 89 77 62 74 45 34 31 23 28 32 49 48 47 42 18 29 22 21 16 10 15 25 33 27 23 28 22 26 30 20 10 8 20 16 8 10 5 359 356 354 350 340 335 336 334 330 325 327 332 333 328 320
45 72 42 74 51 55 41 18 5 24 20 12 22 41 30 34 18 15 32 3 2 354 13 40 39 41 36 22 13 22 31 19 12 20 24 15 2 355 351 348 345 340 337 335 332 329 329 331 329 327 321 318 324 320
81 70 61 60 48 33 30 31 14 0 31 34 5 21 18 12 359 6 8 353 351 353 32 44 32 33 33 21 12 15 14 15 16 22 12 360 357 354 347 341 339 337 335 334 334 333 331 328 328 332 331 329 322 320
76 61 53 53 49 25 26 40 45 44 43 41 43 38 27 21 20 11 0 353 3 31 48 25 30 20 16 13 18 23 23 22 20 16 2 357 352 348 347 346 345 345 344 343 341 337 337 335 333 329 326 328 327 323
54 41 35 23 29 31 34 17 12 22 26 33 39 34 26 31 24 22 21 31 38 30 34 58 16 352 5 17 20 19 17 19 17 12 4 1 358 353 349 348 348 350 353 348 343 342 340 338 335 331 327 324 320 318
43 40 45 39 41 34 34 31 31 36 41 38 27 35 46 41 36 40 63 91 102 94 83 38 13 16 23 34 32 25 25 29 29 19 13 9 7 5 359 352 349 348 356 355 351 346 345 343 340 335 331 328 321 319
52 67 49 58 49 46 44 47 46 47 35 35 45 53 55 55 60 84 104 113 109 109 95 98 90 82 68 59 51 48 43 48 48 50 47 39 29 23 17 9 1 359 8 3 359 357 354 343 341 339 336 331 329 324
70 73 55 53 48 57 62 62 67 72 68 72 66 62 69 70 85 101 105 106 118 114 112 122 107 95 84 81 78 70 67 66 67 75 71 68 65 54 50 52 41 14 15 15 351 356 2 349 343 339 335 334 328 330
56 58 57 55 68 74 75 87 86 83 101 100 90 88 91 102 110 110 112 118 122 113 82 82 86 86 79 79 81 78 78 84 88 89 90 89 87 84 78 74 77 76 72 71 68 37 28 18 5 4 358 356 354 353
71 71 79 83 88 89 98 100 94 101 99 99 100 103 106 109 117 121 121 124 110 100 102 101 101 96 91 83 80 80 85 88 90 91 91 91 90 89 85 88 88 88 87 85 84 86 87 88 88 76 63 39 17 347
83 82 91 93 94 101 101 99 97 94 98 100 107 102 109 117 119 118 115 107 99 99 98 101 104 101 96 96 93 91 92 99 100 99 98 96 93 90 88 88 87 87 88 89 91 91 91 89 83 76 71 68 73 90
91 93 95 94 98 107 109 105 107 106 110 109 113 116 116 112 108 113 118 106 95 91 97 97 98 103 106 102 103 103 100 98 100 102 101 97 96 94 93 91 88 85 84 85 86 86 84 78 72 69 72 74 76 75
87 91 97 102 109 112 117 112 111 109 113 111 116 118 119 116 114 118 119 121 102 99 104 105 102 101 104 103 107 108 109 109 110 110 110 107 103 99 93 91 90 89 88 86 88 83 77 71 69 63 74 83 83 81